• In India
  • List of Countries
  • For 7 days
  • Water Temperature
  • Satellite Maps
  • Weather Map
  • Weather Widgets
  • user-avatar
    Login

    Hourly Weather Dukla

    Today, 20 September, Thursday

    Time Temperature Precipitation Wind Pressure Humidity
    00:00 +15°C° 0 mm 1 mps 733 mmHg 81%
    01:00 +15°C° 0 mm 1 mps 733 mmHg 83%
    02:00 +14°C° 0 mm 1 mps 733 mmHg 84%
    03:00 +14°C° 0 mm 1 mps 733 mmHg 85%
    04:00 +14°C° 0 mm 1 mps 733 mmHg 85%
    05:00 +15°C° 0 mm 1 mps 733 mmHg 82%
    06:00 +16°C° 0 mm 1 mps 733 mmHg 79%
    07:00 +18°C° 0 mm 1 mps 734 mmHg 76%
    08:00 +20°C° 0 mm 1 mps 734 mmHg 67%
    09:00 +23°C° 0 mm 1 mps 734 mmHg 59%
    10:00 +25°C° 0 mm 1 mps 734 mmHg 51%
    11:00 +26°C° 0 mm 1 mps 734 mmHg 47%
    12:00 +27°C° 0 mm 1 mps 734 mmHg 44%
    13:00 +26°C° 0 mm 0 mps 734 mmHg 40%
    14:00 +25°C° 0 mm 0 mps 733 mmHg 44%
    15:00 +26°C° 0 mm 1 mps 733 mmHg 48%
    16:00 +26°C° 0 mm 1 mps 733 mmHg 52%
    17:00 +23°C° 0 mm 1 mps 733 mmHg 57%
    18:00 +21°C° 0 mm 1 mps 732 mmHg 62%
    19:00 +19°C° 0 mm 1 mps 732 mmHg 67%
    20:00 +18°C° 0 mm 1 mps 732 mmHg 70%
    21:00 +18°C° 0 mm 1 mps 732 mmHg 73%
    22:00 +16°C° 0 mm 1 mps 732 mmHg 76%
    23:00 +16°C° 0 mm 1 mps 732 mmHg 77%

    Tomorrow, 21 September, Friday

    Time Temperature Precipitation Wind Pressure Humidity
    00:00 +16°C° 0 mm 1 mps 732 mmHg 79%
    01:00 +16°C° 0 mm 1 mps 732 mmHg 80%
    02:00 +15°C° 0 mm 1 mps 731 mmHg 81%
    03:00 +15°C° 0 mm 1 mps 731 mmHg 82%
    04:00 +15°C° 0 mm 1 mps 731 mmHg 83%
    05:00 +16°C° 0 mm 1 mps 731 mmHg 81%
    06:00 +18°C° 0 mm 1 mps 731 mmHg 78%
    07:00 +18°C° 0 mm 1 mps 731 mmHg 76%
    08:00 +19°C° 0 mm 2 mps 731 mmHg 68%
    09:00 +23°C° 0 mm 2 mps 731 mmHg 60%
    10:00 +25°C° 0 mm 3 mps 731 mmHg 52%
    11:00 +25°C° 0 mm 3 mps 731 mmHg 49%
    12:00 +26°C° 0 mm 4 mps 730 mmHg 46%
    13:00 +27°C° 0 mm 4 mps 730 mmHg 44%
    14:00 +26°C° 0 mm 4 mps 730 mmHg 47%
    15:00 +26°C° 0 mm 3 mps 729 mmHg 50%
    16:00 +25°C° 0 mm 3 mps 729 mmHg 53%
    17:00 +22°C° 0 mm 3 mps 729 mmHg 57%
    18:00 +21°C° 0 mm 3 mps 729 mmHg 62%
    19:00 +19°C° 0 mm 3 mps 729 mmHg 66%
    20:00 +18°C° 0 mm 3 mps 729 mmHg 66%
    21:00 +18°C° 0 mm 3 mps 728 mmHg 66%
    22:00 +18°C° 0 mm 3 mps 728 mmHg 66%
    23:00 +17°C° 0 mm 3 mps 728 mmHg 64%

    Day after tomorrow, 22 September, Saturday

    Time Temperature Precipitation Wind Pressure Humidity
    00:00 +17°C° 0 mm 3 mps 728 mmHg 62%
    01:00 +17°C° 0 mm 3 mps 728 mmHg 59%
    02:00 +17°C° 0 mm 3 mps 729 mmHg 61%
    03:00 +17°C° 0 mm 3 mps 729 mmHg 62%
    04:00 +17°C° 0 mm 3 mps 729 mmHg 64%
    05:00 +16°C° 0.3 mm 3 mps 730 mmHg 72%
    06:00 +14°C° 0.3 mm 3 mps 730 mmHg 79%
    07:00 +13°C° 0.3 mm 3 mps 731 mmHg 87%
    08:00 +13°C° 0.8 mm 3 mps 731 mmHg 88%
    09:00 +12°C° 0.8 mm 3 mps 732 mmHg 89%
    10:00 +13°C° 0.8 mm 2 mps 732 mmHg 90%
    11:00 +12°C° 1.9 mm 2 mps 732 mmHg 90%
    12:00 +12°C° 1.9 mm 2 mps 732 mmHg 91%
    13:00 +10°C° 1.9 mm 2 mps 732 mmHg 91%
    14:00 +10°C° 0.6 mm 2 mps 732 mmHg 89%
    15:00 +11°C° 0.6 mm 1 mps 732 mmHg 87%
    16:00 +12°C° 0.6 mm 1 mps 732 mmHg 85%
    17:00 +11°C° 0 mm 1 mps 732 mmHg 87%
    18:00 +10°C° 0 mm 1 mps 733 mmHg 89%
    19:00 +9°C° 0 mm 1 mps 733 mmHg 91%
    20:00 +9°C° 0 mm 1 mps 733 mmHg 89%
    21:00 +8°C° 0 mm 2 mps 733 mmHg 88%
    22:00 +8°C° 0 mm 2 mps 733 mmHg 87%
    23:00 +8°C° 0 mm 2 mps 733 mmHg 87%

    23 September, Sunday

    Time Temperature Precipitation Wind Pressure Humidity
    00:00 +8°C° 0 mm 2 mps 733 mmHg 86%
    01:00 +8°C° 0 mm 2 mps 733 mmHg 86%
    02:00 +7°C° 0 mm 2 mps 733 mmHg 87%
    03:00 +7°C° 0 mm 2 mps 733 mmHg 87%
    04:00 +7°C° 0 mm 2 mps 733 mmHg 87%
    05:00 +7°C° 0 mm 2 mps 733 mmHg 86%
    06:00 +8°C° 0 mm 2 mps 733 mmHg 84%
    07:00 +9°C° 0 mm 2 mps 733 mmHg 82%
    08:00 +11°C° 0 mm 3 mps 733 mmHg 75%
    09:00 +13°C° 0 mm 3 mps 733 mmHg 67%
    10:00 +14°C° 0 mm 4 mps 733 mmHg 60%
    11:00 +15°C° 0 mm 4 mps 732 mmHg 56%
    12:00 +17°C° 0 mm 4 mps 732 mmHg 52%
    13:00 +18°C° 0 mm 4 mps 731 mmHg 49%
    14:00 +18°C° 0 mm 4 mps 730 mmHg 53%
    15:00 +17°C° 0 mm 4 mps 730 mmHg 58%
    16:00 +15°C° 0 mm 4 mps 729 mmHg 62%
    17:00 +15°C° 0.2 mm 5 mps 728 mmHg 64%
    18:00 +14°C° 0.2 mm 6 mps 727 mmHg 67%
    19:00 +14°C° 0.2 mm 6 mps 727 mmHg 69%
    20:00 +14°C° 0.9 mm 7 mps 726 mmHg 71%
    21:00 +14°C° 0.9 mm 7 mps 725 mmHg 74%
    22:00 +12°C° 0.9 mm 7 mps 725 mmHg 76%
    23:00 +13°C° 0.1 mm 8 mps 724 mmHg 72%

    24 September, Monday

    Time Temperature Precipitation Wind Pressure Humidity
    00:00 +13°C° 0.1 mm 8 mps 723 mmHg 69%
    01:00 +13°C° 0.1 mm 8 mps 722 mmHg 65%
    02:00 +13°C° 0.5 mm 8 mps 721 mmHg 70%
    03:00 +13°C° 0.5 mm 8 mps 720 mmHg 75%
    04:00 +12°C° 0.5 mm 8 mps 720 mmHg 80%
    05:00 +12°C° 1.3 mm 8 mps 720 mmHg 82%
    06:00 +12°C° 1.3 mm 8 mps 721 mmHg 83%
    07:00 +11°C° 1.3 mm 8 mps 721 mmHg 85%
    08:00 +10°C° 0.2 mm 7 mps 723 mmHg 84%
    09:00 +9°C° 0.2 mm 7 mps 724 mmHg 83%
    10:00 +8°C° 0.2 mm 7 mps 726 mmHg 83%
    11:00 +8°C° 0.1 mm 7 mps 727 mmHg 77%
    12:00 +9°C° 0.1 mm 8 mps 728 mmHg 71%
    13:00 +9°C° 0.1 mm 8 mps 729 mmHg 66%
    14:00 +9°C° 0 mm 8 mps 730 mmHg 63%
    15:00 +10°C° 0 mm 7 mps 730 mmHg 60%
    16:00 +10°C° 0 mm 7 mps 731 mmHg 57%
    17:00 +9°C° 0 mm 6 mps 732 mmHg 60%
    18:00 +9°C° 0 mm 5 mps 732 mmHg 63%
    19:00 +8°C° 0 mm 4 mps 733 mmHg 66%
    20:00 +7°C° 0 mm 4 mps 733 mmHg 70%
    21:00 +8°C° 0 mm 3 mps 734 mmHg 74%
    22:00 +7°C° 0 mm 3 mps 734 mmHg 77%
    23:00 +7°C° 0 mm 3 mps 735 mmHg 81%

    25 September, Tuesday

    Time Temperature Precipitation Wind Pressure Humidity
    00:00 +5°C° 0 mm 3 mps 735 mmHg 84%
    01:00 +5°C° 0 mm 3 mps 735 mmHg 88%
    02:00 +5°C° 0 mm 3 mps 736 mmHg 90%
    03:00 +4°C° 0 mm 3 mps 736 mmHg 92%
    04:00 +4°C° 0 mm 3 mps 736 mmHg 93%
    05:00 +4°C° 0 mm 3 mps 736 mmHg 90%
    06:00 +5°C° 0 mm 4 mps 737 mmHg 86%
    07:00 +5°C° 0 mm 4 mps 737 mmHg 83%
    08:00 +6°C° 0.1 mm 5 mps 737 mmHg 77%
    09:00 +7°C° 0.1 mm 5 mps 737 mmHg 70%
    10:00 +9°C° 0.1 mm 5 mps 737 mmHg 64%
    11:00 +9°C° 0.1 mm 5 mps 737 mmHg 60%
    12:00 +10°C° 0.1 mm 5 mps 737 mmHg 55%
    13:00 +12°C° 0.1 mm 5 mps 737 mmHg 51%
    14:00 +10°C° 0 mm 5 mps 736 mmHg 53%
    15:00 +11°C° 0 mm 4 mps 736 mmHg 54%
    16:00 +11°C° 0 mm 4 mps 736 mmHg 55%
    17:00 +9°C° 0 mm 3 mps 736 mmHg 60%
    18:00 +8°C° 0 mm 2 mps 736 mmHg 65%
    19:00 +7°C° 0 mm 2 mps 737 mmHg 69%
    20:00 +7°C° 0.1 mm 2 mps 737 mmHg 73%
    21:00 +6°C° 0.1 mm 2 mps 737 mmHg 77%
    22:00 +6°C° 0.1 mm 2 mps 737 mmHg 80%
    23:00 +6°C° 0.4 mm 2 mps 737 mmHg 84%
    Show more